GEFSSE_con_prob3kmehi_132.txt.gz
EHI
12 21 33 39 35 28 21 16 12 6 3 3 3 2 3 4 4 2 1 0 0 0 0 0 0 0 0 0 0 0 0 1 2 2 1 0 0 0 0 0 0 0 0
21 27 36 42 39 30 23 17 12 6 3 2 1 1 2 2 1 1 0 0 0 0 0 0 0 0 0 0 0 0 0 0 1 1 0 0 0 0 0 0 0 0 0
36 35 40 46 44 33 24 17 11 6 3 1 0 0 0 0 0 0 0 0 0 0 0 0 0 0 0 0 0 0 0 0 0 0 0 0 0 0 0 0 0 0 0
45 40 42 48 46 34 23 16 10 5 2 0 0 0 0 0 0 0 0 0 0 0 0 0 0 0 0 0 0 0 0 0 0 0 0 0 0 0 0 0 0 0 0
50 45 46 49 45 33 22 14 10 6 2 0 0 0 0 0 0 0 0 0 0 0 0 0 0 0 0 0 0 0 0 0 0 0 0 0 0 0 0 0 0 0 0
56 52 50 50 43 31 23 16 13 8 3 0 0 0 0 0 0 0 0 0 0 0 0 0 0 0 0 0 0 0 0 0 0 0 0 0 0 0 0 0 0 0 0
61 56 53 50 41 31 25 21 17 11 6 2 1 0 0 0 0 0 0 0 0 0 0 0 1 1 1 0 0 0 0 0 0 0 0 0 0 0 0 0 0 0 0
66 59 53 49 40 31 26 23 19 14 8 4 2 1 0 0 0 0 0 0 0 0 0 1 2 2 2 1 0 0 1 1 0 0 0 0 0 0 0 0 0 0 0
69 61 52 44 37 30 25 22 18 14 10 6 3 1 0 0 0 0 0 0 0 0 0 1 2 3 3 3 1 1 1 1 1 0 0 0 1 1 1 0 0 0 0
64 58 49 40 34 28 23 20 16 12 9 6 3 1 0 0 0 0 0 0 0 0 0 1 2 3 5 5 3 2 1 1 1 0 0 0 1 1 1 0 0 0 0
52 48 44 39 33 27 22 17 14 10 7 5 2 1 1 0 0 0 0 0 0 0 0 0 1 4 5 4 3 2 1 0 0 0 0 1 2 1 0 0 0 0 0
43 40 38 35 29 24 20 16 11 7 5 3 2 1 1 0 0 0 0 0 0 0 0 0 1 3 3 2 1 1 0 0 0 0 0 1 2 2 0 0 0 0 0
43 39 33 30 25 19 16 13 8 5 4 3 2 1 0 0 0 1 1 1 1 0 0 0 0 1 0 0 0 0 0 0 0 0 0 1 2 1 0 0 0 0 0
43 38 31 25 19 14 12 10 7 4 3 3 2 1 0 0 0 0 1 1 1 0 0 0 0 0 0 0 0 0 0 0 0 0 0 0 1 1 1 0 0 0 0
44 37 29 22 15 10 9 8 6 3 2 2 2 1 0 0 0 0 0 0 0 0 0 0 0 0 0 0 0 0 0 0 0 0 0 0 1 1 1 0 0 0 0
45 38 30 23 16 11 10 9 7 3 1 1 1 0 0 0 0 0 0 0 0 0 0 0 0 0 0 0 0 0 0 0 0 0 0 0 0 0 0 0 0 0 0
44 39 31 24 19 16 13 11 9 5 2 0 0 0 0 0 0 0 0 0 0 0 0 0 0 0 0 0 0 0 0 0 0 0 0 0 0 0 0 0 1 1 0
38 35 30 25 23 19 14 10 7 5 3 1 0 0 0 0 0 0 1 1 1 1 0 0 0 0 0 0 0 0 0 0 0 0 0 0 0 0 0 0 1 1 1
30 29 28 27 24 19 14 8 6 5 3 2 1 1 1 0 0 0 1 2 2 1 0 0 0 0 0 0 0 0 0 0 0 0 0 0 0 0 0 0 1 1 0
26 25 27 27 23 18 13 9 6 4 3 2 2 2 1 0 0 0 0 1 1 1 0 0 0 0 0 0 0 0 0 0 0 0 0 0 0 0 0 0 0 0 0
24 23 24 23 19 15 11 7 5 3 3 3 3 2 1 0 0 0 0 0 0 0 0 0 0 0 0 0 0 0 0 0 0 0 0 0 0 0 0 0 0 0 0
20 18 17 16 13 9 6 4 2 1 2 2 2 1 0 0 0 0 0 0 0 0 0 0 0 0 0 0 0 0 0 0 0 0 0 0 0 0 0 0 0 0 0
15 13 12 10 7 3 3 2 1 0 1 1 1 0 0 0 0 0 0 0 0 0 0 0 0 0 0 0 0 0 0 0 0 0 0 0 0 0 0 0 0 0 0
11 10 9 6 3 1 1 1 0 0 0 0 0 0 0 0 0 0 0 0 0 0 0 0 0 0 0 0 0 0 0 0 0 0 0 0 0 0 0 0 0 0 0
10 9 7 5 2 1 0 0 0 0 0 0 0 0 0 0 0 0 0 0 0 0 0 0 0 0 0 0 0 0 0 0 0 0 0 0 0 0 0 0 0 0 0
10 8 6 5 3 1 0 0 0 0 0 0 0 0 0 0 0 0 0 0 0 0 0 0 0 0 0 0 0 0 0 0 0 0 0 0 0 0 0 0 0 0 0

GEFSSE_con_prob3kmehi_138.txt.gz
EHI
8 9 14 21 27 31 33 34 34 29 23 17 12 8 5 2 1 0 0 0 0 0 0 0 0 0 0 0 0 0 0 0 0 0 0 0 0 0 0 0 0 0 0
13 13 18 25 29 31 31 31 31 28 23 18 13 8 4 2 1 0 0 0 0 0 0 0 0 0 0 0 0 0 0 0 0 0 0 0 0 0 0 0 0 0 0
19 18 22 30 33 32 30 27 26 26 22 16 11 6 3 1 0 0 0 0 0 0 0 0 0 0 0 0 0 0 0 0 0 0 0 0 0 0 0 0 0 0 0
24 22 25 34 38 36 31 26 24 22 17 12 7 4 2 1 0 0 0 0 0 0 0 0 0 0 0 0 0 0 0 0 0 0 0 0 0 0 0 0 0 0 0
27 25 31 40 43 38 32 27 23 19 12 7 4 2 1 0 0 0 0 0 0 0 0 0 0 0 0 0 0 0 0 0 0 0 0 0 0 0 0 0 0 0 0
29 28 34 45 46 39 33 28 23 16 8 4 3 2 0 0 0 0 0 0 0 0 0 0 0 0 0 0 0 0 0 0 0 0 0 0 0 0 0 0 0 0 0
34 32 35 44 46 39 33 29 23 15 7 3 3 1 0 0 0 0 0 0 0 0 0 0 0 0 0 0 0 0 0 0 0 0 0 0 0 0 0 0 0 0 0
41 39 39 42 42 38 33 29 23 13 7 4 3 1 0 0 0 0 0 0 0 0 0 0 0 1 1 0 0 0 0 0 0 0 0 0 0 0 0 0 0 0 0
44 44 45 43 39 35 31 27 21 13 8 6 4 1 0 0 0 0 0 0 0 0 1 1 1 2 2 1 0 0 0 0 0 0 0 0 0 0 0 0 0 0 0
42 44 46 44 39 34 29 24 18 13 9 8 6 2 0 0 0 0 0 0 0 0 1 1 1 2 2 2 1 1 0 0 0 0 0 0 0 0 0 0 0 0 0
37 39 41 42 37 32 27 22 16 12 10 8 5 2 0 0 0 0 0 0 0 0 0 0 1 1 1 2 2 1 0 0 0 0 0 0 0 0 0 0 0 0 0
37 35 35 34 31 28 27 23 16 11 9 7 4 1 0 0 0 0 0 0 0 0 0 0 0 0 0 1 1 0 0 0 0 0 0 0 0 0 0 0 0 0 0
40 36 31 28 26 25 26 25 18 12 8 6 3 1 1 0 0 0 0 0 0 0 0 0 0 0 0 0 0 0 0 0 0 0 0 1 1 0 0 0 0 0 0
40 38 33 28 24 24 26 25 19 13 8 5 3 2 1 0 0 0 0 0 0 0 0 0 0 0 0 0 0 0 0 0 0 0 1 2 1 0 0 0 0 0 0
38 36 33 30 26 26 26 24 19 14 9 4 1 1 1 0 0 0 0 0 0 0 0 0 0 0 0 0 0 0 0 0 0 0 1 1 1 0 0 0 0 0 0
33 32 31 31 30 28 25 22 18 14 9 4 1 0 0 0 0 1 0 0 0 0 0 0 0 0 0 0 0 0 0 0 0 0 0 0 0 0 0 0 0 0 0
28 29 31 33 31 27 21 16 13 10 6 3 1 0 0 0 0 0 0 0 0 0 0 0 0 0 0 0 0 0 0 0 0 0 0 0 0 0 0 0 0 0 0
26 28 29 29 26 21 15 11 8 5 3 1 0 0 0 0 0 0 0 0 0 0 0 0 0 0 0 0 0 0 0 0 0 0 0 0 0 0 0 0 0 0 0
23 24 24 21 18 14 10 7 5 3 1 0 0 0 0 0 0 0 0 0 0 0 0 0 0 0 0 0 0 0 0 0 0 0 0 0 0 0 0 0 0 0 0
19 19 19 17 12 9 6 4 3 1 0 0 0 0 0 0 0 0 0 0 0 0 0 0 0 0 0 0 0 0 0 0 0 0 0 0 0 0 0 0 0 0 0
17 15 15 14 9 5 3 1 1 1 0 0 0 0 1 1 0 0 0 0 0 0 0 0 0 0 0 0 0 0 0 0 0 0 0 0 0 0 0 0 0 0 0
16 14 12 9 5 3 2 1 0 0 0 0 0 1 1 1 1 0 0 0 0 0 0 0 0 0 0 0 0 0 0 0 0 0 0 0 0 0 0 0 0 0 0
14 13 11 7 4 2 1 0 0 0 0 0 0 0 0 0 1 0 0 0 0 0 0 0 0 0 0 0 0 0 0 0 0 0 0 0 0 0 0 0 0 0 0
13 12 9 5 3 1 0 0 0 0 0 0 0 0 0 0 0 0 0 0 0 0 0 0 0 0 0 0 0 0 0 0 0 0 0 0 0 0 0 0 0 0 0
11 9 5 2 1 0 0 0 0 0 0 0 0 0 0 0 0 0 0 0 0 0 0 0 0 0 0 0 0 0 0 0 0 0 0 0 0 0 0 0 0 0 0
10 7 3 0 0 0 0 0 0 0 0 0 0 0 0 0 0 0 0 0 0 0 0 0 0 0 0 0 0 0 0 0 0 0 0 0 0 0 0 0 0 0 0

GEFSSE_con_prob3kmehi_144.txt.gz
EHI
9 11 9 6 4 7 12 16 19 17 13 8 4 1 0 0 0 0 0 0 0 0 0 0 0 0 0 0 0 0 0 0 0 0 0 0 0 0 0 0 0 0 0
15 14 11 7 6 9 14 17 18 17 13 9 5 2 1 0 0 0 0 0 0 0 0 0 0 0 0 0 0 0 0 0 0 0 0 0 0 0 0 0 0 0 0
20 17 12 8 8 12 16 18 17 15 13 10 6 3 1 0 0 0 0 0 0 0 0 0 0 0 0 0 0 0 0 0 0 0 0 0 0 0 0 0 0 0 0
18 17 14 12 10 13 18 20 17 14 12 10 6 3 1 0 0 0 0 0 0 0 0 0 0 0 0 0 0 0 0 0 0 0 0 0 0 0 0 0 0 0 0
16 18 19 17 14 15 19 21 18 14 11 9 6 3 1 0 0 0 0 0 0 0 0 0 0 0 0 0 0 0 0 0 0 0 0 0 0 0 0 0 0 0 0
15 18 21 21 17 17 19 21 19 15 12 9 6 2 0 0 0 0 0 0 0 0 0 0 0 0 0 0 0 0 0 0 1 0 0 0 0 0 0 0 0 0 0
14 17 22 22 20 18 18 19 18 16 13 9 6 3 1 0 0 0 0 0 0 0 0 0 0 0 0 0 0 0 0 0 0 0 0 0 0 0 0 0 0 0 0
15 19 23 22 19 18 17 16 16 15 12 8 5 3 2 1 0 0 0 0 0 0 0 0 0 0 0 0 0 0 0 0 0 0 0 0 0 0 0 0 0 0 0
19 21 22 19 15 14 14 13 12 12 9 7 5 4 3 1 0 0 0 0 0 0 0 0 0 0 0 0 0 0 0 0 0 0 0 0 0 0 0 0 0 0 0
22 22 22 19 14 11 10 9 9 8 7 6 5 4 2 1 0 0 0 0 0 0 0 0 0 0 0 0 0 0 0 0 0 0 0 0 0 0 0 0 0 0 0
27 25 23 23 19 12 8 7 7 6 5 5 5 4 2 1 0 0 0 0 0 1 1 0 0 0 0 0 0 0 0 0 0 0 0 0 0 0 0 0 0 0 0
38 31 25 24 22 16 11 9 7 5 5 4 4 3 2 2 1 0 1 1 1 2 1 0 0 0 0 0 0 0 0 0 0 0 0 0 0 0 0 0 0 0 0
47 38 28 24 22 20 17 13 10 8 6 5 4 4 3 3 2 1 2 1 1 1 1 0 0 0 0 0 0 0 0 0 0 0 0 0 0 0 0 0 0 0 0
49 42 32 27 25 25 24 19 15 11 8 7 6 5 4 3 3 3 3 1 1 0 0 0 0 0 0 0 0 0 0 0 0 0 0 0 0 0 0 0 0 0 0
47 42 36 32 29 31 33 29 19 14 12 10 8 5 3 4 6 6 4 2 1 0 0 0 0 0 0 0 0 0 0 0 0 0 0 0 0 0 0 0 0 0 0
43 41 36 32 33 36 38 33 24 18 17 12 9 6 3 4 7 8 6 3 2 1 0 0 0 0 0 0 0 0 0 0 0 0 0 0 0 0 0 0 0 0 0
40 39 34 31 34 37 37 33 26 20 17 13 9 6 3 3 6 8 5 3 2 2 1 0 0 0 0 0 0 0 0 0 0 0 0 0 0 0 0 0 0 0 0
38 37 34 32 33 36 37 33 26 20 17 14 9 5 3 1 3 5 4 3 4 4 2 1 0 0 0 0 0 0 0 0 0 0 0 0 0 0 0 0 0 0 0
36 36 35 34 35 37 37 34 28 22 18 14 8 4 2 1 2 3 4 4 5 6 4 2 1 1 0 0 0 0 0 0 0 0 0 0 0 0 0 0 0 0 0
35 36 36 36 37 37 36 32 27 21 16 12 7 3 2 2 2 3 3 4 6 7 5 3 1 1 0 0 0 0 0 0 0 0 0 0 0 0 0 0 0 0 0
37 36 36 37 37 37 35 29 24 19 14 11 8 5 3 1 1 2 4 5 5 6 5 3 1 0 0 0 0 0 0 0 0 0 0 0 0 0 0 0 1 0 0
39 35 33 34 32 32 32 29 25 22 16 11 10 7 3 1 0 1 3 3 3 3 3 3 2 1 0 0 0 0 0 0 0 0 0 0 0 0 0 0 0 0 0
35 30 27 28 26 25 27 26 24 22 15 9 9 8 4 1 0 1 1 1 1 1 1 2 2 1 0 0 0 0 0 0 0 0 0 0 0 0 0 0 0 0 0
29 25 23 24 22 20 22 21 17 15 10 7 8 9 6 2 0 0 0 0 0 0 0 1 1 0 0 0 0 0 0 0 0 0 0 0 0 0 0 0 0 0 0
25 24 24 25 21 19 18 15 11 10 8 7 9 11 8 4 1 0 0 0 0 0 0 0 0 0 0 0 0 0 0 0 0 0 0 0 0 0 0 0 0 0 0
23 24 26 26 21 19 17 12 8 9 8 8 10 11 10 6 2 0 0 0 0 0 0 0 0 0 0 0 0 0 0 0 0 0 0 0 0 0 0 0 0 0 0

GEFSSE_con_prob3kmehi_150.txt.gz
EHI
39 34 31 21 7 3 2 3 2 1 0 0 0 0 0 0 0 0 0 0 0 0 0 0 0 0 0 0 0 0 1 2 1 0 0 1 2 2 1 1 1 1 2
46 39 34 24 9 3 3 3 3 1 0 0 0 0 0 0 0 0 0 0 0 0 0 0 0 0 0 0 0 0 1 1 1 0 0 0 1 1 0 0 0 1 2
51 41 33 26 13 4 3 4 4 2 0 0 0 0 0 0 0 0 0 0 0 0 0 0 0 0 0 0 0 0 0 0 0 0 0 0 0 0 0 0 0 0 1
48 39 33 28 17 6 3 4 5 3 1 1 0 0 0 0 0 0 0 0 0 0 0 0 0 0 0 0 0 0 0 0 0 0 0 0 0 0 0 0 0 0 0
43 42 39 32 20 8 3 4 5 5 3 2 1 0 0 0 0 0 0 0 0 0 0 0 0 0 0 0 0 0 1 2 1 0 0 0 0 0 0 0 0 0 0
48 47 44 37 24 10 4 4 5 5 4 2 1 0 0 0 0 0 0 0 0 0 0 0 0 0 0 0 0 1 2 3 2 0 0 0 0 0 0 0 0 0 0
60 54 48 44 29 13 6 4 4 4 3 2 1 0 0 0 0 0 0 0 0 0 0 0 0 0 0 0 0 1 4 5 3 1 0 0 0 0 1 1 0 0 0
72 60 50 45 32 17 9 5 4 3 3 1 0 0 0 0 0 0 0 0 0 0 0 0 0 0 0 0 0 1 6 8 5 1 1 0 0 0 1 1 0 0 0
77 60 43 36 28 19 12 7 4 3 2 1 0 0 0 0 0 0 0 0 0 0 0 0 0 0 0 0 0 0 5 8 5 2 1 0 0 0 1 1 0 0 0
76 57 38 30 24 16 11 8 5 2 1 0 0 0 0 0 0 0 0 0 0 0 0 0 0 0 0 0 0 0 2 4 3 2 1 0 0 0 0 0 0 0 0
75 58 42 35 25 14 9 8 6 3 2 1 0 0 0 0 0 0 0 0 0 0 0 0 0 0 1 1 1 3 4 2 1 1 1 0 1 1 1 0 0 0 0
76 61 51 44 30 16 11 10 6 4 3 2 2 1 0 0 1 1 0 0 0 0 0 0 0 1 2 2 3 6 6 3 1 1 0 1 2 2 1 1 0 0 0
75 66 60 54 39 26 22 15 8 5 5 4 4 3 1 2 4 4 2 1 1 0 0 0 0 1 2 1 2 4 5 3 1 1 1 1 3 2 1 0 0 0 0
75 70 68 63 54 48 40 26 16 12 9 8 8 6 4 5 9 10 6 3 1 0 0 0 1 1 1 0 1 1 2 2 1 1 1 2 3 3 1 0 0 0 0
76 73 74 73 70 68 59 42 31 26 20 18 16 10 9 12 17 18 12 6 4 3 2 2 2 3 3 2 2 1 1 1 1 1 1 2 4 4 2 0 0 0 0
75 74 75 77 78 77 68 55 47 40 34 31 28 21 18 22 27 24 16 11 9 9 8 6 5 5 5 5 4 3 2 2 3 3 2 3 4 3 2 1 0 0 0
75 73 72 73 75 75 69 59 51 46 41 41 42 35 29 31 32 25 16 12 13 14 11 8 7 5 5 4 4 3 3 4 4 5 5 4 3 1 2 2 1 0 0
73 72 69 66 68 69 65 59 53 48 47 49 51 45 37 34 31 23 15 12 13 12 9 7 8 6 4 2 2 4 5 5 4 4 5 5 4 2 2 2 1 0 0
70 70 67 65 64 62 60 60 59 57 55 54 52 49 43 36 29 22 18 16 14 11 7 6 9 8 4 1 1 4 5 4 4 3 3 7 8 6 3 2 2 1 0
67 66 64 62 59 57 57 60 63 63 59 54 52 52 47 38 28 22 20 19 17 14 10 7 8 7 3 1 1 2 2 3 4 3 4 8 10 8 5 3 2 1 0
64 63 60 56 54 54 56 60 62 61 56 51 51 51 47 37 27 21 20 19 17 15 11 7 6 5 2 1 1 1 1 1 2 3 4 7 7 5 4 4 4 2 1
62 60 57 53 51 53 57 59 61 58 51 46 46 47 43 36 27 21 20 17 14 13 9 6 6 3 1 0 1 1 1 0 1 1 3 5 5 3 3 4 6 5 3
61 58 54 51 51 53 56 58 58 54 45 39 41 43 40 34 28 24 20 13 9 9 8 8 7 4 1 0 1 1 1 0 0 1 2 3 4 3 2 3 5 5 5
59 57 53 50 49 51 53 54 54 50 42 38 40 42 38 32 28 26 19 10 7 7 8 8 8 5 1 0 0 1 1 1 0 0 1 2 3 4 2 1 2 2 3
55 54 51 48 46 46 47 49 50 47 42 40 40 41 36 29 26 23 18 12 9 7 6 7 7 4 1 0 0 1 1 1 0 0 0 1 2 4 3 1 1 2 2
51 51 49 46 43 43 44 46 47 45 43 40 39 39 35 28 24 20 17 15 10 7 6 7 7 4 1 0 0 1 1 1 0 0 0 0 2 4 3 2 2 3 3

GEFSSE_con_prob3kmehi_156.txt.gz
EHI
4 7 13 16 13 10 7 5 3 2 2 4 5 4 2 1 1 1 1 0 0 0 0 0 0 0 0 0 0 0 0 0 0 0 0 0 1 2 3 2 1 0 0
11 11 15 18 14 9 6 4 3 2 2 2 3 3 1 0 0 0 0 0 0 0 0 0 0 0 0 0 0 0 0 0 0 0 0 0 1 2 2 2 1 0 0
27 19 16 19 17 11 6 3 2 2 1 0 1 1 0 0 0 0 0 0 0 0 0 0 0 0 0 0 0 0 0 0 0 0 0 0 0 1 1 1 0 0 0
39 26 18 20 21 16 8 3 2 2 1 0 0 0 0 0 0 0 0 0 0 0 0 0 0 0 0 1 1 0 0 0 0 0 0 0 0 0 0 0 0 0 0
40 29 23 26 25 18 10 5 2 1 0 0 0 0 0 0 0 0 0 0 0 0 0 0 0 0 0 1 1 0 0 0 0 0 0 0 0 0 0 0 0 0 0
38 30 28 31 28 19 12 7 3 1 0 0 0 0 0 0 0 0 0 0 0 0 0 0 0 0 0 1 1 0 0 0 0 0 0 0 0 0 0 0 0 0 0
42 33 30 33 30 20 13 9 4 1 0 0 0 0 0 0 0 0 0 0 0 0 0 0 0 0 0 0 0 0 0 0 0 0 0 0 0 0 0 0 0 0 0
51 41 34 33 29 21 14 9 5 2 0 0 0 0 0 0 0 0 0 0 0 0 0 0 0 0 0 0 0 0 0 0 0 0 0 0 1 1 0 0 0 0 0
56 48 39 32 26 19 12 9 6 3 1 0 0 0 0 0 0 0 0 0 0 0 0 0 0 0 0 0 0 0 1 1 1 0 0 1 2 1 0 0 0 0 0
51 49 43 35 24 15 10 8 7 4 1 0 0 0 0 0 0 0 0 0 0 0 0 0 0 0 0 0 0 0 1 1 1 0 0 1 1 1 0 0 0 0 0
46 45 44 39 27 15 9 7 7 5 2 0 0 0 0 0 0 0 0 0 0 0 0 1 1 1 0 0 0 0 0 0 0 0 0 0 0 0 0 0 0 0 0
48 44 40 36 28 19 12 8 6 4 3 1 0 0 0 0 0 0 0 0 0 0 0 1 1 1 0 0 0 0 0 0 0 0 0 0 0 0 0 0 0 0 0
52 43 35 30 24 17 12 8 5 4 3 2 1 0 0 0 0 0 0 0 0 0 0 0 0 0 0 0 0 0 0 0 0 0 0 0 0 0 0 0 0 0 0
54 43 33 26 19 13 10 6 4 3 3 2 1 0 0 0 0 0 0 0 0 0 0 0 0 0 0 1 0 0 0 0 0 0 0 0 0 0 0 0 0 0 0
59 48 36 27 18 11 8 4 2 2 3 2 1 0 0 0 0 0 0 0 0 0 0 0 0 0 0 0 0 0 0 0 0 0 0 0 0 0 1 1 1 0 0
62 52 39 30 20 12 8 4 1 1 1 1 1 0 0 0 0 0 0 0 0 0 0 0 0 0 0 0 0 0 0 0 0 0 0 0 0 0 1 2 1 0 0
63 55 44 35 27 17 11 7 4 2 1 1 0 0 0 0 0 0 0 0 0 0 0 0 0 0 0 0 0 0 0 0 0 0 0 0 0 0 1 1 1 0 0
66 59 49 42 35 26 18 13 9 6 4 2 1 1 1 0 0 0 0 0 0 0 0 0 0 0 0 0 0 0 0 0 0 0 0 0 0 0 0 0 0 0 0
67 62 54 47 40 33 26 22 18 14 11 8 5 2 1 1 1 0 0 0 0 0 0 0 0 0 0 0 0 0 0 0 0 0 0 0 0 0 0 0 0 0 0
65 62 55 48 42 37 34 31 27 22 18 14 9 5 3 3 3 1 0 1 1 0 0 0 0 0 0 0 0 0 0 0 0 0 0 0 0 0 0 0 0 0 0
62 59 54 48 42 40 39 37 34 29 23 17 12 8 8 8 6 3 1 2 2 1 0 0 0 0 0 0 0 0 0 0 0 0 0 0 0 0 0 0 0 0 0
58 56 53 50 44 41 39 38 35 30 23 18 13 10 12 12 8 5 3 2 2 1 0 0 0 0 0 0 0 0 0 0 0 0 0 0 0 0 0 0 0 0 0
56 55 54 52 46 41 37 35 33 28 22 18 14 12 12 11 7 5 3 2 1 0 0 0 0 0 0 0 0 0 0 0 0 0 0 0 0 0 0 0 0 0 0
55 54 53 52 48 42 36 33 32 26 19 15 14 12 10 8 5 3 1 1 0 0 0 0 0 0 0 0 0 0 0 0 0 0 0 0 0 0 0 0 0 0 0
52 51 50 49 46 42 36 32 29 23 16 13 12 10 8 6 4 2 0 0 0 0 0 0 0 0 0 0 0 0 0 0 0 0 0 0 0 0 0 0 0 0 0
50 49 48 46 43 39 35 30 26 20 14 12 11 9 7 6 4 2 1 0 0 0 0 0 0 0 0 0 0 0 0 0 0 0 0 0 0 0 0 0 0 0 0

GEFSSE_con_prob3kmehi_162.txt.gz
EHI
0 2 5 7 8 10 10 9 7 7 8 8 7 5 3 1 0 0 0 1 0 1 1 1 0 0 0 0 0 0 0 0 0 0 0 0 0 0 0 0 0 0 0
1 2 5 8 10 10 10 9 7 6 6 6 6 5 4 1 0 0 1 1 0 0 0 0 0 0 0 0 0 0 0 0 0 0 0 0 0 0 0 0 0 0 0
3 3 5 9 12 12 11 9 7 5 4 4 4 4 4 2 1 0 1 1 0 0 0 0 0 0 0 0 0 0 0 0 0 0 0 0 0 0 0 0 0 0 0
7 4 5 11 14 14 12 10 8 6 4 3 4 3 3 2 1 1 1 0 0 0 0 0 0 0 0 0 0 0 0 0 0 0 0 0 0 0 0 0 0 0 0
8 5 7 14 17 15 13 10 9 7 4 4 4 4 3 2 1 1 0 0 0 0 0 0 0 0 0 0 0 0 0 0 0 0 0 0 0 0 0 0 0 0 0
9 7 10 16 17 14 12 10 9 7 4 3 4 3 3 2 1 0 0 0 0 0 0 0 0 0 0 0 0 0 0 0 0 0 0 0 0 0 0 0 0 0 0
12 9 11 17 17 14 12 10 9 6 4 3 3 3 3 2 1 0 0 0 0 0 0 0 0 0 0 0 0 1 1 0 0 0 0 0 0 0 0 0 0 0 0
16 12 11 14 16 14 12 10 8 6 4 3 3 3 3 2 1 0 0 0 0 0 0 0 0 0 0 0 0 1 2 1 0 0 0 0 0 0 0 0 0 0 0
19 16 13 11 13 13 11 8 6 6 5 4 3 2 2 1 1 0 0 0 0 0 0 0 0 0 0 0 0 1 2 2 1 0 0 0 0 0 0 0 0 0 0
20 19 16 13 12 11 8 5 5 6 6 5 3 2 1 0 0 0 0 0 0 0 0 0 0 0 0 0 0 1 2 2 1 0 0 0 0 0 0 0 0 0 0
21 20 21 19 14 11 7 4 3 4 5 5 4 3 1 0 0 0 0 0 0 0 0 0 0 0 0 0 0 0 1 1 0 0 0 0 0 0 0 0 0 0 0
24 22 22 21 17 13 9 5 3 2 3 5 6 4 2 0 0 0 0 0 0 0 0 0 0 0 0 0 0 0 0 0 0 0 0 0 0 0 0 0 0 0 0
28 25 21 18 16 14 11 6 3 2 3 5 6 4 2 1 0 0 0 0 0 0 0 0 0 0 0 0 0 0 0 0 0 0 0 0 0 0 0 0 0 0 0
34 30 22 18 16 13 10 7 4 2 2 3 3 3 2 1 0 0 0 0 0 0 0 0 0 0 0 0 0 0 0 0 0 0 0 0 0 0 0 0 0 0 0
36 33 27 22 18 14 10 7 5 2 1 1 1 1 1 1 0 0 0 0 0 0 0 0 0 0 0 0 0 0 0 0 0 0 0 0 0 0 0 0 0 0 0
31 31 29 25 20 16 11 7 4 2 1 0 0 0 0 0 0 0 0 0 0 0 0 0 0 0 0 0 0 0 0 0 0 0 0 0 0 0 0 0 0 0 0
28 30 30 24 20 15 11 7 4 2 1 0 0 0 0 0 0 0 0 0 0 0 0 0 0 0 0 0 0 0 0 0 0 0 0 0 0 0 0 0 0 0 0
27 29 29 24 19 15 9 5 4 2 1 0 0 0 0 0 0 0 0 0 0 0 0 0 0 0 0 0 0 0 0 0 0 0 0 0 0 0 0 0 0 0 0
26 27 27 24 19 14 10 5 3 3 1 0 0 0 0 0 0 0 0 0 0 0 0 0 0 0 0 0 0 0 0 0 0 0 0 0 0 0 0 0 0 0 0
27 28 29 26 20 15 12 8 5 4 2 1 0 0 0 0 0 0 0 0 0 0 0 0 0 0 0 0 0 0 0 0 0 0 0 0 0 0 0 0 0 0 0
37 37 36 30 21 16 15 12 8 6 3 1 0 0 0 0 0 0 0 0 0 0 0 0 0 0 0 0 0 0 0 0 0 0 0 0 0 0 0 0 0 0 0
52 49 43 34 25 19 16 13 9 5 3 1 0 0 0 0 0 0 0 0 0 0 0 0 0 0 0 0 0 0 0 0 0 0 0 0 0 0 0 0 0 0 0
59 56 47 37 29 22 18 15 10 5 2 0 0 0 0 0 0 0 0 0 0 0 0 0 0 0 0 0 0 0 0 0 0 0 0 0 0 0 0 0 0 0 0
59 56 48 40 34 28 24 21 15 6 1 0 0 0 0 0 0 0 0 0 0 0 0 0 0 0 0 0 0 0 0 0 0 0 0 0 0 0 0 0 0 0 0
55 52 48 45 39 33 29 25 18 9 3 1 2 3 2 1 0 0 0 0 0 0 0 0 0 0 0 0 0 0 0 0 0 0 0 0 0 0 0 0 0 0 0
50 49 49 47 42 34 30 26 18 10 5 4 5 6 4 2 1 0 0 0 0 0 0 0 0 0 0 0 0 0 0 0 0 0 0 0 0 0 0 0 0 0 0

GEFSSE_con_prob3kmehi_168.txt.gz
EHI
2 2 2 1 0 0 2 8 10 8 6 5 3 1 0 0 0 0 0 0 0 0 0 1 1 0 0 0 0 0 0 0 0 0 0 0 0 0 0 0 0 0 0
4 3 3 2 1 0 3 8 10 8 6 6 4 2 0 0 0 0 0 0 0 0 0 1 1 0 0 0 0 0 0 0 0 0 0 0 0 0 0 0 0 0 0
5 4 4 3 2 1 4 9 10 8 7 7 7 5 2 0 0 0 0 0 0 0 0 1 1 0 0 0 0 0 0 0 0 0 0 0 0 0 0 0 0 0 0
4 4 4 4 3 1 3 8 10 8 6 7 7 5 2 0 0 0 0 0 0 0 0 0 0 0 0 0 0 0 0 0 0 0 0 0 0 0 0 0 0 0 0
3 4 5 6 3 1 2 6 7 6 5 5 5 4 1 0 0 0 0 0 0 0 0 0 0 0 0 0 0 0 0 0 0 0 0 0 0 0 0 0 0 0 0
2 4 7 8 4 2 3 4 5 4 4 4 4 3 1 0 0 0 0 0 0 0 0 0 0 0 0 0 0 0 0 0 0 0 0 0 0 0 0 0 0 0 0
1 3 8 10 7 4 3 4 3 3 3 3 3 3 1 0 0 0 0 0 0 0 0 0 0 0 0 0 0 0 0 0 0 0 0 0 0 0 0 0 0 0 0
1 4 8 10 8 5 3 3 3 3 3 3 3 2 1 0 0 0 0 0 0 0 0 0 0 0 0 0 0 0 0 0 0 0 0 0 0 0 0 0 0 0 0
3 5 8 7 5 3 2 2 2 2 3 3 2 1 1 0 0 0 0 0 0 0 0 0 0 0 0 0 0 0 0 0 0 0 0 0 0 0 0 0 0 0 0
5 7 8 5 4 3 2 1 1 1 1 2 1 0 0 0 0 0 0 0 0 0 0 0 0 0 0 0 0 0 0 0 0 0 0 0 0 0 0 0 0 0 0
8 9 8 6 5 4 3 2 1 0 1 1 0 0 0 0 0 0 1 0 0 0 0 0 0 0 0 0 0 0 0 0 0 0 0 0 0 0 0 0 0 0 0
12 11 10 9 7 5 4 3 2 1 1 1 1 1 0 0 0 1 2 1 0 0 0 0 0 0 0 0 0 0 0 0 0 0 0 0 0 0 0 0 0 0 0
19 15 12 11 9 6 6 5 2 2 2 3 4 3 1 0 0 0 1 0 0 0 0 0 0 0 0 0 0 0 0 0 0 0 0 0 0 0 0 0 0 0 0
27 22 16 14 12 10 9 7 4 3 4 5 6 6 3 2 1 1 0 0 0 0 0 0 0 0 0 0 0 0 0 0 0 0 0 0 0 0 0 0 0 0 0
32 27 21 18 17 16 13 9 6 6 7 7 8 7 6 5 4 3 2 0 1 1 1 0 0 0 0 0 0 0 0 0 0 0 0 0 0 0 0 0 0 0 0
32 30 26 24 22 20 16 10 9 9 10 9 8 9 8 7 6 6 4 2 1 2 2 1 0 0 0 0 0 0 0 0 0 0 0 0 0 0 0 0 0 0 0
34 33 31 28 25 22 16 11 9 9 9 7 7 10 11 8 7 6 5 3 2 3 3 1 0 0 0 0 0 0 0 0 0 0 0 1 0 0 0 0 0 0 0
37 36 33 29 26 23 18 14 11 9 8 6 7 10 10 9 7 6 5 4 4 4 3 1 0 0 0 0 0 0 0 0 0 0 0 0 0 0 0 0 0 0 0
37 36 34 31 29 26 21 16 13 11 9 8 8 9 9 9 7 6 6 6 5 5 4 2 0 0 0 0 0 0 0 0 0 0 0 0 0 0 0 0 0 0 0
38 38 37 36 34 30 23 19 17 14 11 9 9 10 11 10 7 6 5 5 5 5 3 2 0 0 0 0 0 0 0 0 0 0 0 0 0 0 0 0 0 0 0
44 43 43 43 43 39 32 26 22 18 14 12 12 13 14 12 9 6 4 3 5 5 3 1 0 0 0 0 0 0 0 0 0 0 0 0 0 0 0 0 0 0 0
47 46 47 50 51 48 42 34 29 25 20 15 13 14 14 14 13 9 6 4 5 6 5 2 0 0 0 0 0 0 0 0 1 0 0 0 0 0 0 0 0 0 0
48 46 46 51 55 53 47 38 34 32 25 18 15 14 14 15 15 13 9 8 8 7 5 3 1 0 0 0 0 0 0 0 0 0 0 0 0 0 0 0 0 0 0
45 43 45 52 57 58 51 42 36 31 25 20 18 16 16 17 16 14 11 9 8 6 4 3 2 0 0 0 0 0 0 0 0 0 0 0 0 0 0 0 1 1 0
42 41 45 52 59 59 54 45 37 28 22 22 22 21 20 20 18 14 10 8 6 4 4 4 3 1 1 0 1 1 0 0 0 0 0 0 0 1 1 1 2 2 1
42 42 44 51 58 59 53 46 38 28 22 23 24 24 23 21 19 15 10 7 4 4 4 4 4 3 2 1 2 2 1 0 0 0 0 0 1 2 2 2 3 3 2

GEFSSE_con_prob3kmehi_174.txt.gz
EHI
6 7 6 3 0 0 0 0 0 0 0 0 0 1 3 3 3 2 1 0 0 0 0 0 0 0 0 0 0 0 0 0 0 1 1 1 0 0 0 0 0 0 0
7 7 7 4 1 0 0 0 0 0 0 0 0 1 2 3 2 1 0 0 0 0 0 0 0 0 0 0 0 0 0 0 0 0 0 0 0 0 0 0 0 0 1
6 5 5 3 1 0 0 0 0 0 0 0 1 1 1 2 1 0 0 0 0 0 0 0 0 0 0 0 0 0 0 0 0 0 0 0 0 0 0 0 0 1 2
2 2 3 3 1 0 0 0 0 0 0 1 1 1 1 1 0 0 0 0 0 0 0 0 0 0 0 0 0 0 0 0 0 0 0 0 0 0 0 0 0 1 2
2 2 3 5 3 2 1 1 0 0 0 1 2 3 2 1 0 0 0 0 0 0 0 0 0 0 0 0 0 0 0 0 0 0 0 0 0 0 0 0 0 0 1
5 4 5 7 6 4 2 1 0 0 0 1 2 3 2 1 0 0 0 0 0 0 0 0 0 0 0 0 0 0 1 2 1 0 0 0 0 0 0 0 0 0 0
12 8 6 7 7 5 3 1 0 0 0 0 1 3 2 1 0 0 0 0 0 0 0 0 0 0 0 0 0 1 3 5 3 0 0 0 0 0 0 0 0 0 0
19 13 8 7 7 6 4 2 1 1 0 0 1 2 2 1 0 0 0 0 0 0 0 0 0 0 0 0 0 1 4 6 3 0 0 0 0 0 0 0 0 0 0
24 16 8 6 6 4 4 3 3 3 2 0 0 1 1 1 0 0 0 0 0 0 0 0 0 0 0 0 0 0 3 5 2 0 0 0 0 0 0 0 0 0 0
24 16 8 6 5 3 3 3 4 4 3 1 0 0 0 0 0 0 0 0 0 0 0 0 0 0 0 0 0 0 1 2 1 0 0 0 0 0 0 0 0 0 0
26 18 11 8 5 3 2 3 3 2 2 1 0 0 0 0 0 0 1 1 0 0 0 0 0 0 0 0 0 1 1 1 0 0 1 1 2 1 0 0 0 0 0
32 24 16 12 7 4 3 2 1 1 2 1 0 0 0 0 0 1 2 2 1 0 0 0 0 0 0 0 1 2 1 0 1 1 2 4 3 1 0 0 0 0 0
42 33 25 19 13 10 6 3 1 1 2 1 0 0 0 0 0 1 2 2 1 0 0 0 0 0 0 0 1 1 1 0 2 3 3 5 5 1 0 0 0 0 0
51 46 41 33 26 23 15 7 4 4 4 3 3 2 1 0 0 1 3 3 1 0 0 0 0 0 0 0 0 0 0 0 2 3 3 4 4 2 0 0 0 0 0
60 60 59 53 46 40 29 15 10 10 9 10 8 5 4 4 5 5 4 3 1 0 1 1 1 0 0 1 1 1 1 0 2 3 2 2 3 3 1 0 0 0 0
69 70 73 71 65 56 39 22 16 16 17 17 16 13 11 14 15 12 5 2 1 2 4 3 1 0 0 1 2 2 2 1 1 2 1 0 2 2 1 0 0 0 0
79 80 79 76 74 66 45 26 19 21 22 25 28 26 21 23 25 17 7 3 4 8 9 5 2 1 1 1 1 2 3 2 2 2 1 0 0 1 0 0 0 0 0
87 89 84 75 74 69 51 33 26 27 31 38 41 36 29 29 30 21 12 11 13 13 9 5 2 2 3 2 1 1 2 3 2 1 1 0 1 1 1 1 1 1 0
92 93 87 79 77 71 57 43 39 42 46 46 45 42 38 35 32 24 21 24 20 12 7 5 6 6 5 3 1 0 1 2 1 0 1 2 3 5 5 3 3 3 2
93 92 87 83 80 75 66 57 54 58 56 48 45 47 47 42 34 28 30 31 23 13 8 9 12 11 6 3 2 2 2 2 2 1 1 3 6 8 8 7 6 4 4
92 89 84 80 79 78 74 69 65 64 58 49 47 53 54 49 40 33 32 34 27 20 18 17 17 13 7 4 5 5 3 1 3 3 2 3 6 8 10 12 12 10 8
91 88 83 79 77 77 76 72 67 62 55 48 49 57 58 52 45 37 36 37 33 30 29 26 21 14 8 5 6 6 2 1 2 2 2 3 4 6 9 12 16 17 16
90 86 82 78 75 75 74 71 67 65 56 49 52 58 58 52 46 42 41 40 36 35 35 30 22 15 9 6 6 6 3 1 1 1 3 4 5 7 7 8 13 18 20
85 82 79 76 74 74 73 71 72 70 61 55 56 58 56 51 46 44 43 41 37 35 36 32 23 17 11 8 6 6 4 2 1 1 2 3 6 7 4 3 7 13 17
78 78 79 78 75 74 74 74 75 72 66 61 60 59 55 51 47 44 42 42 39 36 35 35 28 19 13 9 7 6 4 3 1 1 1 2 4 4 3 2 4 9 12
75 79 82 81 77 74 74 75 75 72 67 64 63 59 54 50 47 43 41 42 42 38 35 37 33 22 12 10 9 7 5 3 1 0 0 1 2 2 2 3 5 8 11

GEFSSE_con_prob3kmehi_180.txt.gz
EHI
3 6 9 9 5 4 6 6 6 6 7 11 15 15 13 10 7 6 6 6 6 6 6 5 4 3 3 3 3 3 3 3 3 3 3 3 3 3 3 3 3 3 3
5 6 10 10 7 5 5 6 6 6 6 9 12 12 10 8 7 6 6 6 6 6 5 4 3 3 3 3 3 3 3 3 3 3 3 3 3 3 3 3 3 3 3
10 8 10 12 10 7 5 4 5 4 5 7 9 8 7 6 6 6 6 6 6 5 4 3 3 3 3 3 3 3 3 3 3 3 3 3 3 3 3 3 3 3 3
13 11 10 12 11 8 5 4 4 3 4 6 7 6 4 4 5 6 6 6 6 5 4 3 3 3 3 3 3 3 3 3 3 3 3 3 3 3 3 3 4 4 4
13 11 11 12 11 9 6 4 3 3 4 5 5 4 3 3 4 4 4 4 4 5 4 3 3 3 3 3 3 3 3 3 3 2 2 3 3 3 3 4 5 5 4
11 11 12 13 11 9 7 5 3 3 4 5 6 4 3 3 3 3 3 3 3 4 3 3 3 3 3 3 3 3 3 3 2 1 1 2 3 3 3 4 5 4 4
11 11 13 13 11 9 7 5 4 3 4 5 6 5 4 3 3 3 3 3 3 3 3 3 3 3 3 3 3 3 3 3 1 0 1 2 3 3 3 3 4 3 3
13 12 12 12 10 8 7 6 5 3 3 4 6 5 4 3 3 3 3 3 3 3 3 3 3 3 3 3 3 3 3 2 1 0 1 3 3 3 3 3 3 3 3
13 13 12 10 7 6 7 7 6 4 3 4 5 4 3 3 3 3 3 3 3 3 3 3 3 3 3 3 3 3 3 2 1 1 2 3 3 3 3 3 3 3 3
13 13 11 8 5 5 5 6 5 4 3 4 4 4 3 3 3 3 3 3 3 3 3 3 3 3 3 3 3 3 3 1 1 2 3 3 3 3 3 3 3 3 3
11 11 9 7 4 3 3 4 4 3 3 3 4 3 3 3 3 3 3 3 3 3 3 3 3 4 3 3 3 3 2 0 1 2 3 4 4 4 3 3 3 3 3
11 9 7 6 4 3 3 3 3 3 3 3 3 3 2 2 3 3 3 3 3 3 3 3 4 4 3 2 2 2 1 0 1 2 4 6 7 6 4 3 3 3 3
12 9 6 5 4 3 3 3 3 3 3 3 3 3 2 1 2 3 3 3 3 2 2 3 3 2 1 1 1 1 0 0 1 2 5 8 9 8 6 4 3 3 3
13 9 6 5 4 3 3 3 3 3 3 3 3 3 2 1 2 3 2 2 1 1 1 1 1 0 0 0 0 0 0 0 1 2 5 8 10 9 8 6 4 3 3
17 12 7 4 3 3 3 3 3 3 3 3 3 3 2 2 2 2 1 1 0 0 0 1 1 0 0 0 0 0 0 0 1 2 4 7 9 9 7 5 4 3 3
28 21 12 7 5 4 3 3 3 3 3 3 3 3 3 2 2 2 1 1 0 0 1 2 1 0 0 0 0 0 0 0 0 1 3 5 6 6 5 4 3 3 3
46 39 27 18 12 9 6 5 5 4 4 4 3 3 3 3 2 2 2 1 0 0 1 2 1 0 0 0 0 0 0 0 0 0 1 3 4 4 3 3 3 3 3
65 60 49 37 28 20 13 10 9 8 7 6 4 4 4 3 3 3 2 1 0 1 2 2 1 0 0 0 0 0 0 0 0 0 1 2 3 3 3 4 4 5 4
74 73 66 56 45 35 26 20 16 14 12 9 7 6 6 5 4 3 1 0 1 2 3 3 2 1 0 0 0 0 0 0 0 0 0 1 1 2 3 4 6 7 7
75 76 75 67 57 47 38 31 26 21 18 15 12 11 10 9 6 4 1 1 2 3 3 3 2 1 0 0 0 0 0 0 0 0 0 0 0 1 2 3 4 5 6
77 78 79 72 62 53 47 39 32 27 23 20 17 16 15 14 11 6 3 3 3 3 3 3 2 1 0 0 0 0 0 0 0 0 0 0 0 0 1 1 1 2 2
78 79 79 73 63 54 48 41 33 28 25 23 23 22 20 19 16 11 6 4 3 2 3 3 1 0 0 0 0 0 0 0 0 0 0 0 0 0 1 0 0 0 0
78 76 74 71 64 54 48 41 34 30 29 27 26 27 27 24 21 16 9 5 3 2 2 2 1 0 0 0 0 0 0 0 0 0 0 0 0 0 1 1 0 0 1
75 72 70 69 64 56 49 43 38 33 30 26 24 26 29 28 24 18 11 6 3 1 1 1 1 1 0 0 0 0 0 0 0 0 0 0 0 0 1 2 1 1 2
72 70 68 68 64 57 50 44 40 33 25 19 18 21 25 27 24 21 15 8 4 2 1 1 1 1 0 0 0 0 0 0 0 0 0 0 0 0 1 2 2 1 2
71 70 68 66 62 56 50 45 41 34 22 15 16 18 22 24 24 25 20 11 7 4 2 1 1 1 0 0 0 0 0 0 0 0 0 0 0 0 0 1 2 1 1

GEFSSE_con_prob3kmehi_186.txt.gz
EHI
0 0 0 0 1 5 8 10 10 8 5 3 1 1 1 2 3 3 3 3 3 3 2 1 0 0 0 0 0 0 0 0 0 0 0 0 0 0 0 0 0 0 0
0 0 0 0 1 4 8 10 10 10 7 4 2 2 3 3 3 3 3 3 3 3 1 0 0 0 0 0 0 0 0 0 0 0 0 0 0 0 0 0 0 0 0
1 0 0 0 1 3 6 9 11 11 9 5 2 3 4 4 3 3 3 3 3 2 1 0 0 0 0 0 0 0 0 0 0 0 0 0 0 0 0 0 0 0 0
2 1 1 1 2 3 5 10 11 10 7 4 2 2 3 3 3 2 3 3 3 2 1 1 0 0 0 1 1 0 0 0 0 0 0 0 0 0 0 0 0 0 0
3 3 3 4 3 3 5 8 10 8 5 3 1 1 3 3 3 3 3 3 2 1 1 1 0 0 1 2 1 0 0 0 0 0 0 0 0 0 0 0 0 0 0
4 4 5 7 6 4 4 6 7 6 4 2 1 2 3 3 3 3 3 3 2 1 1 1 1 0 1 1 1 0 0 0 0 0 0 0 0 0 0 0 0 0 0
6 5 7 9 8 6 4 4 4 4 3 2 2 3 3 3 3 3 2 2 1 0 1 1 1 1 1 0 0 0 0 0 0 0 0 0 0 0 0 0 0 0 0
7 7 7 8 8 6 4 3 3 4 4 4 3 3 3 3 2 1 1 1 1 0 1 1 1 0 0 0 0 0 0 0 0 0 0 0 0 0 0 0 0 0 0
6 6 7 7 7 5 4 3 4 5 6 5 4 3 2 1 1 0 0 0 0 0 0 0 0 0 0 0 0 0 0 0 0 0 0 0 0 0 0 0 0 0 0
5 5 6 6 6 4 3 3 4 5 6 5 2 1 1 0 0 0 0 0 0 0 0 0 0 0 0 0 0 0 0 0 0 0 0 0 0 0 0 0 0 0 0
4 4 4 5 6 4 3 3 3 4 4 3 1 0 0 0 0 0 0 0 0 0 0 0 0 0 0 0 0 0 0 0 0 0 0 0 0 0 0 0 0 0 0
3 3 3 4 5 5 4 3 3 3 3 2 1 0 0 0 0 0 0 0 0 0 0 0 0 0 0 0 0 0 0 0 0 0 0 0 0 0 0 0 0 0 0
3 3 3 3 4 4 4 3 3 3 2 1 0 0 0 0 0 0 0 0 0 0 0 0 0 0 0 0 0 0 0 0 0 0 0 0 1 0 0 0 0 0 0
3 2 1 1 1 2 3 3 3 2 1 0 0 0 0 0 0 0 0 0 0 0 0 0 0 0 0 0 0 0 0 0 0 0 0 1 2 2 1 0 0 0 0
2 1 0 0 1 1 1 1 2 1 0 0 0 0 0 0 0 0 0 0 0 0 0 0 0 0 0 0 0 0 0 0 0 0 0 1 3 4 3 1 0 0 0
1 0 0 0 1 2 1 0 0 0 0 0 0 0 0 0 0 0 0 0 0 0 0 0 0 0 0 0 0 0 0 0 0 0 0 0 2 3 3 2 1 0 0
0 0 0 0 1 2 1 0 0 0 0 0 0 0 0 0 0 0 0 0 0 0 0 0 0 0 0 0 0 0 0 0 0 0 0 0 0 1 2 3 2 1 0
3 3 2 1 1 1 1 0 0 0 0 0 0 0 0 0 0 0 0 0 0 0 0 0 0 0 0 0 0 0 0 0 0 0 0 0 0 0 1 2 3 2 1
9 8 6 5 3 2 0 0 0 0 0 0 0 0 0 0 0 0 0 0 0 0 0 0 0 0 0 0 0 0 0 0 0 0 0 0 0 0 0 1 2 2 1
13 11 9 8 5 3 1 0 0 0 0 0 0 0 0 0 0 0 0 0 0 0 0 0 0 0 0 0 0 0 0 0 0 0 0 0 0 0 0 0 1 1 0
17 15 12 9 6 4 3 1 1 1 0 0 0 0 0 0 0 1 1 0 0 0 0 0 0 0 0 0 0 0 0 0 0 0 0 0 0 0 0 0 0 0 0
26 25 21 14 10 8 6 3 2 1 1 1 0 1 1 0 0 1 1 0 0 1 0 0 0 0 0 0 0 0 0 0 0 0 0 0 0 0 0 0 0 0 0
38 38 34 26 20 17 14 10 6 5 5 4 3 3 2 1 1 1 1 0 0 0 0 0 0 0 0 0 0 0 0 0 0 0 0 0 0 0 0 0 0 0 0
48 47 44 38 31 26 24 22 17 14 11 8 6 6 5 3 3 3 2 0 0 0 0 0 0 0 0 0 0 0 0 0 0 0 0 0 0 0 0 0 0 0 0
49 49 48 43 36 32 30 30 28 21 14 9 7 7 7 6 5 5 3 1 1 0 0 0 0 0 1 0 0 0 0 0 0 0 0 0 0 0 0 0 0 0 0
47 47 48 43 36 33 31 31 31 23 13 7 6 7 9 8 6 6 5 3 2 1 0 0 0 0 1 0 0 0 0 0 0 0 0 0 0 0 0 0 0 0 0